Regional Weather Roundup
Issued by NWS

Home | Current Version | Previous Version | Graphics & Text | Print | Product List | Glossary On
Versions: 1 2 3 4 5 6 7 8 9 10 11 12 13 14 15 16 17 18 19 20 21 22 23 24 25 26 27 28 29 30 31 32 33 34 35 36 37 38 39 40 41 42 43 44 45 46 47 48 49 50
000
ASUS43 KBIS 200910
RWRND

NORTH DAKOTA REGIONAL WEATHER ROUNDUP
NATIONAL WEATHER SERVICE BISMARCK ND
300 AM CST MON FEB 20 2017

NOTE: "FAIR" INDICATES FEW OR NO CLOUDS BELOW 12,000 FEET WITH NO
SIGNIFICANT WEATHER AND/OR OBSTRUCTIONS TO VISIBILITY.


NDZ001>003-009>011-017-201000-
NORTHWEST NORTH DAKOTA

CITY           SKY/WX    TMP DP  RH WIND       PRES   REMARKS
WILLISTON      MOCLDY    33  32  96 W7        29.63S
MINOT          CLOUDY    34  33  96 SW3       29.59R FOG
MINOT AFB      CLOUDY    32  32  99 W6        29.57R
$$

NDZ018>021-031>035-040>046-201000-
SOUTHWEST NORTH DAKOTA

CITY           SKY/WX    TMP DP  RH WIND       PRES   REMARKS
BISMARCK       CLOUDY    37  35  92 SW5       29.56F
DICKINSON      CLOUDY    37  34  89 W10       29.57R
GARRISON         N/A     35  32  88 NW12      29.55S
HETTINGER ARPT MOCLDY    38  33  82 NW8       29.59R
$$

NDZ004>008-012>016-024-026-027-054-201000-
NORTHEAST NORTH DAKOTA

CITY           SKY/WX    TMP DP  RH WIND       PRES   REMARKS
GRAND FORKS    CLOUDY    41  36  82 S12       29.56F HAZE
GRND FRKS AFB  CLOUDY    38  38  99 S7        29.57F FOG
DEVILS LAKE    LGT RAIN  36  36 100 CALM      29.56S VSB 1/4
$$

NDZ022-023-025-028>030-036>039-047>053-201000-
SOUTHEAST NORTH DAKOTA

CITY           SKY/WX    TMP DP  RH WIND       PRES   REMARKS
FARGO          CLOUDY    53  48  83 SE22G30   29.58F
JAMESTOWN      LGT RAIN  43  42  97 S10       29.54F FOG
$$




USA.gov is the U.S. government's official web portal to all federal, state and local government web resources and services.